Content
SEND FEEDBACK

Daily
Averages
Monthly
Summary
United States of America

ST. LOUIS - SAINT LOUIS UNIVERSITY, MISSOURI


Home > North America > United States > Missouri
Elevation: 580 feet     Latitude: 38 38N     Longitude: 090 14W

WEATHER
 
SELECT A DAY
Number of Records: 185,881;   Date Range: 1/1/95 - 7/7/14
 
SHARE

PRINT THIS DATA

[ ← Previous Day ]
WEATHER ALMANAC - JANUARY 21, 2013
[ Next Day → ]
[ °C ]   °F
Weather ElementAverageHighLow
Temperature21.2 °F26.1 °F (12:53 pm)16 °F (10:53 pm)
Dewpoint4.2 °F12 °F (1:53 am)-4 °F (2:53 pm)
Humidity49.2 %66 % (3:53 am)31 % (1:53 pm)
Barometer30.37 in30.43 in (10:53 pm)30.33 in (1:53 am)
Wind Speed15.1 mph21.9 mph (2:53 pm)
Wind Gust28.8 mph (2:53 pm)
Weather ElementAverage
Visibility10 mi
Wind DirectionNW (314.2 °)

Weather ElementTotal
Precipitation---
Heating Degree Days44 (Base 65)
Averaged from 24 records on January 21, 2013
WEATHER CONDITIONS BREAKOUT
WIND DIRECTION BREAKOUT
WEATHER BY HOUR - JANUARY 21, 2013
[ °C ]   °F
Local TimeTemperatureDewpointHumidityBarometerVisibilityWind DirectionWind SpeedGust SpeedPrecipitationEventsConditions
1:53 AM23.0 °F12.0 °F63 %30.33 in10.0 miNW (310°)9.2 mphClear
2:53 AM23.0 °F12.0 °F63 %30.33 in10.0 miNW (310°)16.1 mphClear
3:53 AM21.9 °F12.0 °F66 %30.34 in10.0 miNW (320°)13.8 mphClear
4:21 AM21.2 °F10.4 °F63 %30.34 in10.0 miNNW (330°)20.7 mph27.6 mphMostly Cloudy
4:33 AM21.2 °F10.4 °F63 %30.34 in10.0 miNW (320°)11.5 mphScattered Clouds
4:53 AM21.0 °F10.9 °F65 %30.36 in10.0 miNW (320°)12.7 mphClear
5:53 AM21.0 °F10.0 °F63 %30.35 in10.0 miNW (310°)15.0 mph21.9 mphClear
6:53 AM19.9 °F8.1 °F60 %30.37 in10.0 miWNW (300°)12.7 mphClear
7:53 AM19.9 °F6.1 °F55 %30.36 in10.0 miNW (310°)13.8 mph21.9 mphClear
8:53 AM21.9 °F5.0 °F48 %30.37 in10.0 miNW (310°)18.4 mph26.5 mphClear
9:53 AM23.0 °F6.1 °F48 %30.37 in10.0 miNW (310°)17.3 mph26.5 mphClear
10:53 AM24.1 °F5.0 °F44 %30.37 in10.0 miNW (310°)18.4 mphClear
11:53 AM25.0 °F3.9 °F41 %30.35 in10.0 miWNW (300°)18.4 mph25.3 mphClear
12:53 PM26.1 °F6.1 °F43 %30.34 in10.0 miNNW (330°)20.7 mph26.5 mphPartly Cloudy
1:53 PM26.1 °F-0.9 °F31 %30.35 in10.0 miWNW (300°)18.4 mph27.6 mphOvercast
2:53 PM23.0 °F-4.0 °F31 %30.36 in10.0 miNW (310°)21.9 mph28.8 mphOvercast
3:53 PM21.0 °F0.0 °F40 %30.38 in10.0 miWNW (300°)17.3 mphOvercast
4:53 PM19.9 °F0.0 °F42 %30.39 in10.0 miNW (310°)11.5 mphOvercast
5:53 PM19.0 °F-0.9 °F42 %30.40 in10.0 miWNW (300°)15.0 mphOvercast
6:53 PM19.0 °F-2.9 °F38 %30.40 in10.0 miNW (310°)15.0 mphOvercast
7:53 PM18.0 °F-2.0 °F41 %30.40 in10.0 miNNW (330°)13.8 mphOvercast
8:53 PM18.0 °F-2.0 °F41 %30.41 in10.0 miNNW (330°)10.4 mphClear
10:53 PM16.0 °F-2.9 °F43 %30.43 in10.0 miNNW (330°)11.5 mphClear
11:53 PM16.0 °F-0.9 °F47 %30.42 in10.0 miNNW (330°)8.1 mphPartly Cloudy
Hourly data recorded from KCPS, located miles away from St. Louis - Saint Louis University, Missouri







STORIES FROM OUR PARTNERS